Datum;"Wasserstand in cm";"Stationsnummer: 5956703";"Stationsname: Lenzen, Amtsbr�cke";"Gew?sser: L�cknitz";"Fehlwerte: -777"
"24.03.2024 00:00";136
"24.03.2024 00:15";136
"24.03.2024 00:30";136
"24.03.2024 00:45";136
"24.03.2024 01:00";136
"24.03.2024 01:15";136
"24.03.2024 01:30";136
"24.03.2024 01:45";136
"24.03.2024 02:00";136
"24.03.2024 02:15";136
"24.03.2024 02:30";136
"24.03.2024 02:45";136
"24.03.2024 03:00";136
"24.03.2024 03:15";136
"24.03.2024 03:30";136
"24.03.2024 03:45";136
"24.03.2024 04:00";136
"24.03.2024 04:15";136
"24.03.2024 04:30";136
"24.03.2024 04:45";136
"24.03.2024 05:00";136
"24.03.2024 05:15";136
"24.03.2024 05:30";136
"24.03.2024 05:45";136
"24.03.2024 06:00";136
"24.03.2024 06:15";136
"24.03.2024 06:30";136
"24.03.2024 06:45";136
"24.03.2024 07:00";136
"24.03.2024 07:15";136
"24.03.2024 07:30";136
"24.03.2024 07:45";136
"24.03.2024 08:00";136
"24.03.2024 08:15";136
"24.03.2024 08:30";136
"24.03.2024 08:45";136
"24.03.2024 09:00";136
"24.03.2024 09:15";136
"24.03.2024 09:30";137
"24.03.2024 09:45";137
"24.03.2024 10:00";137
"24.03.2024 10:15";137
"24.03.2024 10:30";137
"24.03.2024 10:45";137
"24.03.2024 11:00";137
"24.03.2024 11:15";137
"24.03.2024 11:30";137
"24.03.2024 11:45";137
"24.03.2024 12:00";137
"24.03.2024 12:15";137
"24.03.2024 12:30";136
"24.03.2024 12:45";136
"24.03.2024 13:00";136
"24.03.2024 13:15";136
"24.03.2024 13:30";136
"24.03.2024 13:45";136
"24.03.2024 14:00";137
"24.03.2024 14:15";137
"24.03.2024 14:30";137
"24.03.2024 14:45";136
"24.03.2024 15:00";137
"24.03.2024 15:15";137
"24.03.2024 15:30";137
"24.03.2024 15:45";137
"24.03.2024 16:00";137
"24.03.2024 16:15";137
"24.03.2024 16:30";137
"24.03.2024 16:45";137
"24.03.2024 17:00";136
"24.03.2024 17:15";136
"24.03.2024 17:30";136
"24.03.2024 17:45";136
"24.03.2024 18:00";136
"24.03.2024 18:15";136
"24.03.2024 18:30";137
"24.03.2024 18:45";137
"24.03.2024 19:00";137
"24.03.2024 19:15";137
"24.03.2024 19:30";137
"24.03.2024 19:45";137
"24.03.2024 20:00";137
"24.03.2024 20:15";137
"24.03.2024 20:30";137
"24.03.2024 20:45";137
"24.03.2024 21:00";137
"24.03.2024 21:15";137
"24.03.2024 21:30";137
"24.03.2024 21:45";137
"24.03.2024 22:00";137
"24.03.2024 22:15";137
"24.03.2024 22:30";137
"24.03.2024 22:45";137
"24.03.2024 23:00";137
"24.03.2024 23:15";137
"24.03.2024 23:30";137
"24.03.2024 23:45";137
"25.03.2024 00:00";137
"25.03.2024 00:15";137
"25.03.2024 00:30";137
"25.03.2024 00:45";137
"25.03.2024 01:00";137
"25.03.2024 01:15";137
"25.03.2024 01:30";137
"25.03.2024 01:45";137
"25.03.2024 02:00";137
"25.03.2024 02:15";138
"25.03.2024 02:30";138
"25.03.2024 02:45";138
"25.03.2024 03:00";138
"25.03.2024 03:15";138
"25.03.2024 03:30";138
"25.03.2024 03:45";138
"25.03.2024 04:00";138
"25.03.2024 04:15";138
"25.03.2024 04:30";138
"25.03.2024 04:45";138
"25.03.2024 05:00";138
"25.03.2024 05:15";138
"25.03.2024 05:30";138
"25.03.2024 05:45";138
"25.03.2024 06:00";138
"25.03.2024 06:15";138
"25.03.2024 06:30";138
"25.03.2024 06:45";138
"25.03.2024 07:00";138
"25.03.2024 07:15";138
"25.03.2024 07:30";138
"25.03.2024 07:45";138
"25.03.2024 08:00";138
"25.03.2024 08:15";138
"25.03.2024 08:30";138
"25.03.2024 08:45";138
"25.03.2024 09:00";138
"25.03.2024 09:15";138
"25.03.2024 09:30";138
"25.03.2024 09:45";138
"25.03.2024 10:00";138
"25.03.2024 10:15";138
"25.03.2024 10:30";138
"25.03.2024 10:45";138
"25.03.2024 11:00";138
"25.03.2024 11:15";138
"25.03.2024 11:30";138
"25.03.2024 11:45";138
"25.03.2024 12:00";138
"25.03.2024 12:15";138
"25.03.2024 12:30";138
"25.03.2024 12:45";138
"25.03.2024 13:00";138
"25.03.2024 13:15";139
"25.03.2024 13:30";139
"25.03.2024 13:45";138
"25.03.2024 14:00";139
"25.03.2024 14:15";139
"25.03.2024 14:30";138
"25.03.2024 14:45";138
"25.03.2024 15:00";138
"25.03.2024 15:15";138
"25.03.2024 15:30";138
"25.03.2024 15:45";139
"25.03.2024 16:00";139
"25.03.2024 16:15";139
"25.03.2024 16:30";138
"25.03.2024 16:45";138
"25.03.2024 17:00";138
"25.03.2024 17:15";138
"25.03.2024 17:30";138
"25.03.2024 17:45";138
"25.03.2024 18:00";138
"25.03.2024 18:15";138
"25.03.2024 18:30";138
"25.03.2024 18:45";138
"25.03.2024 19:00";138
"25.03.2024 19:15";138
"25.03.2024 19:30";138
"25.03.2024 19:45";138
"25.03.2024 20:00";138
"25.03.2024 20:15";138
"25.03.2024 20:30";138
"25.03.2024 20:45";138
"25.03.2024 21:00";138
"25.03.2024 21:15";138
"25.03.2024 21:30";138
"25.03.2024 21:45";138
"25.03.2024 22:00";138
"25.03.2024 22:15";138
"25.03.2024 22:30";138
"25.03.2024 22:45";138
"25.03.2024 23:00";138
"25.03.2024 23:15";138
"25.03.2024 23:30";139
"25.03.2024 23:45";138
"26.03.2024 00:00";139
"26.03.2024 00:15";139
"26.03.2024 00:30";139
"26.03.2024 00:45";139
"26.03.2024 01:00";139
"26.03.2024 01:15";139
"26.03.2024 01:30";139
"26.03.2024 01:45";139
"26.03.2024 02:00";139
"26.03.2024 02:15";139
"26.03.2024 02:30";139
"26.03.2024 02:45";139
"26.03.2024 03:00";139
"26.03.2024 03:15";139
"26.03.2024 03:30";139
"26.03.2024 03:45";139
"26.03.2024 04:00";139
"26.03.2024 04:15";139
"26.03.2024 04:30";139
"26.03.2024 04:45";139
"26.03.2024 05:00";139
"26.03.2024 05:15";139
"26.03.2024 05:30";139
"26.03.2024 05:45";139
"26.03.2024 06:00";139
"26.03.2024 06:15";139
"26.03.2024 06:30";139
"26.03.2024 06:45";139
"26.03.2024 07:00";139
"26.03.2024 07:15";139
"26.03.2024 07:30";139
"26.03.2024 07:45";139
"26.03.2024 08:00";139
"26.03.2024 08:15";139
"26.03.2024 08:30";138
"26.03.2024 08:45";138
"26.03.2024 09:00";138
"26.03.2024 09:15";138
"26.03.2024 09:30";138
"26.03.2024 09:45";138
"26.03.2024 10:00";138
"26.03.2024 10:15";138
"26.03.2024 10:30";138
"26.03.2024 10:45";138
"26.03.2024 11:00";138
"26.03.2024 11:15";138
"26.03.2024 11:30";138
"26.03.2024 11:45";138
"26.03.2024 12:00";138
"26.03.2024 12:15";138
"26.03.2024 12:30";138
"26.03.2024 12:45";138
"26.03.2024 13:00";138
"26.03.2024 13:15";138
"26.03.2024 13:30";138
"26.03.2024 13:45";138
"26.03.2024 14:00";138
"26.03.2024 14:15";138
"26.03.2024 14:30";138
"26.03.2024 14:45";138
"26.03.2024 15:00";138
"26.03.2024 15:15";138
"26.03.2024 15:30";138
"26.03.2024 15:45";138
"26.03.2024 16:00";138
"26.03.2024 16:15";138
"26.03.2024 16:30";138
"26.03.2024 16:45";138
"26.03.2024 17:00";138
"26.03.2024 17:15";138
"26.03.2024 17:30";138
"26.03.2024 17:45";138
"26.03.2024 18:00";138
"26.03.2024 18:15";138
"26.03.2024 18:30";138
"26.03.2024 18:45";138
"26.03.2024 19:00";138
"26.03.2024 19:15";138
"26.03.2024 19:30";138
"26.03.2024 19:45";138
"26.03.2024 20:00";138
"26.03.2024 20:15";138
"26.03.2024 20:30";138
"26.03.2024 20:45";138
"26.03.2024 21:00";138
"26.03.2024 21:15";138
"26.03.2024 21:30";138
"26.03.2024 21:45";138
"26.03.2024 22:00";138
"26.03.2024 22:15";138
"26.03.2024 22:30";138
"26.03.2024 22:45";138
"26.03.2024 23:00";138
"26.03.2024 23:15";138
"26.03.2024 23:30";138
"26.03.2024 23:45";138
"27.03.2024 00:00";138
"27.03.2024 00:15";138
"27.03.2024 00:30";138
"27.03.2024 00:45";138
"27.03.2024 01:00";138
"27.03.2024 01:15";138
"27.03.2024 01:30";138
"27.03.2024 01:45";138
"27.03.2024 02:00";138
"27.03.2024 02:15";138
"27.03.2024 02:30";138
"27.03.2024 02:45";138
"27.03.2024 03:00";138
"27.03.2024 03:15";138
"27.03.2024 03:30";138
"27.03.2024 03:45";138
"27.03.2024 04:00";138
"27.03.2024 04:15";138
"27.03.2024 04:30";138
"27.03.2024 04:45";138
"27.03.2024 05:00";138
"27.03.2024 05:15";138
"27.03.2024 05:30";138
"27.03.2024 05:45";138
"27.03.2024 06:00";138
"27.03.2024 06:15";138
"27.03.2024 06:30";138
"27.03.2024 06:45";138
"27.03.2024 07:00";138
"27.03.2024 07:15";138
"27.03.2024 07:30";138
"27.03.2024 07:45";138
"27.03.2024 08:00";138
"27.03.2024 08:15";138
"27.03.2024 08:30";138
"27.03.2024 08:45";138
"27.03.2024 09:00";138
"27.03.2024 09:15";138
"27.03.2024 09:30";138
"27.03.2024 09:45";138
"27.03.2024 10:00";138
"27.03.2024 10:15";137
"27.03.2024 10:30";137
"27.03.2024 10:45";137
"27.03.2024 11:00";137
"27.03.2024 11:15";137
"27.03.2024 11:30";137
"27.03.2024 11:45";137
"27.03.2024 12:00";137
"27.03.2024 12:15";137
"27.03.2024 12:30";137
"27.03.2024 12:45";137
"27.03.2024 13:00";137
"27.03.2024 13:15";137
"27.03.2024 13:30";137
"27.03.2024 13:45";137
"27.03.2024 14:00";137
"27.03.2024 14:15";137
"27.03.2024 14:30";137
"27.03.2024 14:45";137
"27.03.2024 15:00";137
"27.03.2024 15:15";137
"27.03.2024 15:30";137
"27.03.2024 15:45";137
"27.03.2024 16:00";137
"27.03.2024 16:15";137
"27.03.2024 16:30";137
"27.03.2024 16:45";137
"27.03.2024 17:00";137
"27.03.2024 17:15";137
"27.03.2024 17:30";137
"27.03.2024 17:45";137
"27.03.2024 18:00";137
"27.03.2024 18:15";137
"27.03.2024 18:30";137
"27.03.2024 18:45";137
"27.03.2024 19:00";137
"27.03.2024 19:15";137
"27.03.2024 19:30";137
"27.03.2024 19:45";137
"27.03.2024 20:00";137
"27.03.2024 20:15";137
"27.03.2024 20:30";137
"27.03.2024 20:45";137
"27.03.2024 21:00";137
"27.03.2024 21:15";137
"27.03.2024 21:30";137
"27.03.2024 21:45";137
"27.03.2024 22:00";137
"27.03.2024 22:15";137
"27.03.2024 22:30";137
"27.03.2024 22:45";137
"27.03.2024 23:00";137
"27.03.2024 23:15";137
"27.03.2024 23:30";137
"27.03.2024 23:45";137
"28.03.2024 00:00";137
"28.03.2024 00:15";137
"28.03.2024 00:30";137
"28.03.2024 00:45";137
"28.03.2024 01:00";137
"28.03.2024 01:15";137
"28.03.2024 01:30";137
"28.03.2024 01:45";137
"28.03.2024 02:00";137
"28.03.2024 02:15";137
"28.03.2024 02:30";136
"28.03.2024 02:45";137
"28.03.2024 03:00";136
"28.03.2024 03:15";136
"28.03.2024 03:30";136
"28.03.2024 03:45";136
"28.03.2024 04:00";136
"28.03.2024 04:15";136
"28.03.2024 04:30";136
"28.03.2024 04:45";136
"28.03.2024 05:00";136
"28.03.2024 05:15";136
"28.03.2024 05:30";136
"28.03.2024 05:45";136
"28.03.2024 06:00";136
"28.03.2024 06:15";136
"28.03.2024 06:30";136
"28.03.2024 06:45";137
"28.03.2024 07:00";136
"28.03.2024 07:15";136
"28.03.2024 07:30";136
"28.03.2024 07:45";136
"28.03.2024 08:00";137
"28.03.2024 08:15";137
"28.03.2024 08:30";137
"28.03.2024 08:45";137
"28.03.2024 09:00";137
"28.03.2024 09:15";137
"28.03.2024 09:30";137
"28.03.2024 09:45";137
"28.03.2024 10:00";137
"28.03.2024 10:15";137
"28.03.2024 10:30";137
"28.03.2024 10:45";136
"28.03.2024 11:00";136
"28.03.2024 11:15";136
"28.03.2024 11:30";136
"28.03.2024 11:45";136
"28.03.2024 12:00";136
"28.03.2024 12:15";136
"28.03.2024 12:30";136
"28.03.2024 12:45";136
"28.03.2024 13:00";136
"28.03.2024 13:15";136
"28.03.2024 13:30";136
"28.03.2024 13:45";136
"28.03.2024 14:00";136
"28.03.2024 14:15";136
"28.03.2024 14:30";136
"28.03.2024 14:45";136
"28.03.2024 15:00";136
"28.03.2024 15:15";136
"28.03.2024 15:30";136
"28.03.2024 15:45";136
"28.03.2024 16:00";136
"28.03.2024 16:15";136
"28.03.2024 16:30";136
"28.03.2024 16:45";136
"28.03.2024 17:00";137
"28.03.2024 17:15";137
"28.03.2024 17:30";137
"28.03.2024 17:45";137
"28.03.2024 18:00";136
"28.03.2024 18:15";137
"28.03.2024 18:30";136
"28.03.2024 18:45";136
"28.03.2024 19:00";136
"28.03.2024 19:15";136
"28.03.2024 19:30";136
"28.03.2024 19:45";136
"28.03.2024 20:00";136
"28.03.2024 20:15";136
"28.03.2024 20:30";136
"28.03.2024 20:45";136
"28.03.2024 21:00";136
"28.03.2024 21:15";136
"28.03.2024 21:30";136
"28.03.2024 21:45";136
"28.03.2024 22:00";136
"28.03.2024 22:15";136
"28.03.2024 22:30";136
"28.03.2024 22:45";136
"28.03.2024 23:00";136
"28.03.2024 23:15";136
"28.03.2024 23:30";136
"28.03.2024 23:45";136
"29.03.2024 00:00";136
"29.03.2024 00:15";136
"29.03.2024 00:30";136
"29.03.2024 00:45";136
"29.03.2024 01:00";136
"29.03.2024 01:15";136
"29.03.2024 01:30";136
"29.03.2024 01:45";136
"29.03.2024 02:00";136
"29.03.2024 02:15";136
"29.03.2024 02:30";135
"29.03.2024 02:45";135
"29.03.2024 03:00";135
"29.03.2024 03:15";135
"29.03.2024 03:30";135
"29.03.2024 03:45";135
"29.03.2024 04:00";135
"29.03.2024 04:15";135
"29.03.2024 04:30";135
"29.03.2024 04:45";135
"29.03.2024 05:00";135
"29.03.2024 05:15";135
"29.03.2024 05:30";135
"29.03.2024 05:45";135
"29.03.2024 06:00";135
"29.03.2024 06:15";135
"29.03.2024 06:30";135
"29.03.2024 06:45";135
"29.03.2024 07:00";135
"29.03.2024 07:15";135
"29.03.2024 07:30";135
"29.03.2024 07:45";135
"29.03.2024 08:00";135
"29.03.2024 08:15";135
"29.03.2024 08:30";135
"29.03.2024 08:45";134
"29.03.2024 09:00";134
"29.03.2024 09:15";134
"29.03.2024 09:30";134
"29.03.2024 09:45";134
"29.03.2024 10:00";134
"29.03.2024 10:15";134
"29.03.2024 10:30";134
"29.03.2024 10:45";134
"29.03.2024 11:00";134
"29.03.2024 11:15";134
"29.03.2024 11:30";134
"29.03.2024 11:45";134
"29.03.2024 12:00";134
"29.03.2024 12:15";134
"29.03.2024 12:30";134
"29.03.2024 12:45";134
"29.03.2024 13:00";134
"29.03.2024 13:15";134
"29.03.2024 13:30";134
"29.03.2024 13:45";134
"29.03.2024 14:00";134
"29.03.2024 14:15";134
"29.03.2024 14:30";134
"29.03.2024 14:45";134
"29.03.2024 15:00";134
"29.03.2024 15:15";134
"29.03.2024 15:30";134
"29.03.2024 15:45";134
"29.03.2024 16:00";134
"29.03.2024 16:15";134
"29.03.2024 16:30";134
"29.03.2024 16:45";134
"29.03.2024 17:00";134
"29.03.2024 17:15";134
"29.03.2024 17:30";134
"29.03.2024 17:45";134
"29.03.2024 18:00";134
"29.03.2024 18:15";134
"29.03.2024 18:30";134
"29.03.2024 18:45";134
"29.03.2024 19:00";134
"29.03.2024 19:15";134
"29.03.2024 19:30";134
"29.03.2024 19:45";133
"29.03.2024 20:00";133
"29.03.2024 20:15";133
"29.03.2024 20:30";133
"29.03.2024 20:45";133
"29.03.2024 21:00";133
"29.03.2024 21:15";133
"29.03.2024 21:30";133
"29.03.2024 21:45";133
"29.03.2024 22:00";133
"29.03.2024 22:15";133
"29.03.2024 22:30";133
"29.03.2024 22:45";133
"29.03.2024 23:00";133
"29.03.2024 23:15";133
"29.03.2024 23:30";133
"29.03.2024 23:45";133
"30.03.2024 00:00";133
"30.03.2024 00:15";133
"30.03.2024 00:30";133
"30.03.2024 00:45";133
"30.03.2024 01:00";133
"30.03.2024 01:15";133
"30.03.2024 01:30";133
"30.03.2024 01:45";133
"30.03.2024 02:00";133
"30.03.2024 02:15";133
"30.03.2024 02:30";133
"30.03.2024 02:45";133
"30.03.2024 03:00";133
"30.03.2024 03:15";133
"30.03.2024 03:30";133
"30.03.2024 03:45";133
"30.03.2024 04:00";133
"30.03.2024 04:15";133
"30.03.2024 04:30";133
"30.03.2024 04:45";133
"30.03.2024 05:00";133
"30.03.2024 05:15";133
"30.03.2024 05:30";133
"30.03.2024 05:45";133
"30.03.2024 06:00";133
"30.03.2024 06:15";133
"30.03.2024 06:30";133
"30.03.2024 06:45";133
"30.03.2024 07:00";133
"30.03.2024 07:15";133
"30.03.2024 07:30";133
"30.03.2024 07:45";132
"30.03.2024 08:00";132
"30.03.2024 08:15";132
"30.03.2024 08:30";132
"30.03.2024 08:45";132
"30.03.2024 09:00";132
"30.03.2024 09:15";132
"30.03.2024 09:30";132
"30.03.2024 09:45";132
"30.03.2024 10:00";132
"30.03.2024 10:15";132
"30.03.2024 10:30";132
"30.03.2024 10:45";132
"30.03.2024 11:00";132
"30.03.2024 11:15";132
"30.03.2024 11:30";132
"30.03.2024 11:45";132
"30.03.2024 12:00";132
"30.03.2024 12:15";132
"30.03.2024 12:30";132
"30.03.2024 12:45";132
"30.03.2024 13:00";132
"30.03.2024 13:15";132
"30.03.2024 13:30";132
"30.03.2024 13:45";132
"30.03.2024 14:00";132
"30.03.2024 14:15";132
"30.03.2024 14:30";132
"30.03.2024 14:45";132
"30.03.2024 15:00";132
"30.03.2024 15:15";132
"30.03.2024 15:30";132
"30.03.2024 15:45";132
"30.03.2024 16:00";132
"30.03.2024 16:15";132
"30.03.2024 16:30";132
"30.03.2024 16:45";132
"30.03.2024 17:00";132
"30.03.2024 17:15";132
"30.03.2024 17:30";132
"30.03.2024 17:45";132
"30.03.2024 18:00";132
"30.03.2024 18:15";132
"30.03.2024 18:30";132
"30.03.2024 18:45";132
"30.03.2024 19:00";132
"30.03.2024 19:15";132
"30.03.2024 19:30";132
"30.03.2024 19:45";132
"30.03.2024 20:00";132
"30.03.2024 20:15";132
"30.03.2024 20:30";132
"30.03.2024 20:45";132
"30.03.2024 21:00";132
"30.03.2024 21:15";132
"30.03.2024 21:30";132
"30.03.2024 21:45";132
"30.03.2024 22:00";132
"30.03.2024 22:15";132
"30.03.2024 22:30";132
"30.03.2024 22:45";132
"30.03.2024 23:00";132
"30.03.2024 23:15";132
"30.03.2024 23:30";132
"30.03.2024 23:45";132
"31.03.2024 00:00";132
"31.03.2024 00:15";132
"31.03.2024 00:30";132
"31.03.2024 00:45";132
"31.03.2024 01:00";132
"31.03.2024 01:15";132
"31.03.2024 01:30";132
"31.03.2024 01:45";132
"31.03.2024 02:00";132
"31.03.2024 02:15";132
"31.03.2024 02:30";132
"31.03.2024 02:45";132
"31.03.2024 03:00";132
"31.03.2024 03:15";132
"31.03.2024 03:30";132
"31.03.2024 03:45";132
"31.03.2024 04:00";132
"31.03.2024 04:15";132
"31.03.2024 04:30";132
"31.03.2024 04:45";132
"31.03.2024 05:00";132
"31.03.2024 05:15";132
"31.03.2024 05:30";132
"31.03.2024 05:45";132
"31.03.2024 06:00";132
"31.03.2024 06:15";132
"31.03.2024 06:30";132
"31.03.2024 06:45";132
"31.03.2024 07:00";132
"31.03.2024 07:15";132
"31.03.2024 07:30";132
"31.03.2024 07:45";132
"31.03.2024 08:00";132
"31.03.2024 08:15";132
"31.03.2024 08:30";132
"31.03.2024 08:45";132
"31.03.2024 09:00";132
"31.03.2024 09:15";132
"31.03.2024 09:30";132
"31.03.2024 09:45";132
"31.03.2024 10:00";131
"31.03.2024 10:15";132
"31.03.2024 10:30";132
"31.03.2024 10:45";132
"31.03.2024 11:00";131
"31.03.2024 11:15";131
"31.03.2024 11:30";131
"31.03.2024 11:45";132
"31.03.2024 12:00";132
"31.03.2024 12:15";132
"31.03.2024 12:30";132
"31.03.2024 12:45";132
"31.03.2024 13:00";132
"31.03.2024 13:15";132
"31.03.2024 13:30";132
"31.03.2024 13:45";132
"31.03.2024 14:00";131
"31.03.2024 14:15";131
"31.03.2024 14:30";131
"31.03.2024 14:45";131
"31.03.2024 15:00";132
"31.03.2024 15:15";132
"31.03.2024 15:30";131
"31.03.2024 15:45";131
"31.03.2024 16:00";131
"31.03.2024 16:15";131
"31.03.2024 16:30";131
"31.03.2024 16:45";131
"31.03.2024 17:00";131
"31.03.2024 17:15";131
"31.03.2024 17:30";131
"31.03.2024 17:45";131
"31.03.2024 18:00";131
"31.03.2024 18:15";131
"31.03.2024 18:30";131
"31.03.2024 18:45";131
"31.03.2024 19:00";131
"31.03.2024 19:15";131
"31.03.2024 19:30";131
"31.03.2024 19:45";131
"31.03.2024 20:00";131
"31.03.2024 20:15";131
"31.03.2024 20:30";131
"31.03.2024 20:45";131
"31.03.2024 21:00";131
"31.03.2024 21:15";131
"31.03.2024 21:30";131
"31.03.2024 21:45";131
"31.03.2024 22:00";131
"31.03.2024 22:15";131
"31.03.2024 22:30";131
"31.03.2024 22:45";131
"31.03.2024 23:00";131
"31.03.2024 23:15";131
"31.03.2024 23:30";131
"31.03.2024 23:45";131
"01.04.2024 00:00";131
"01.04.2024 00:15";131
"01.04.2024 00:30";130
"01.04.2024 00:45";130
"01.04.2024 01:00";130
"01.04.2024 01:15";130
"01.04.2024 01:30";130
"01.04.2024 01:45";130
"01.04.2024 02:00";130
"01.04.2024 02:15";130
"01.04.2024 02:30";130
"01.04.2024 02:45";130
"01.04.2024 03:00";130
"01.04.2024 03:15";130
"01.04.2024 03:30";130
"01.04.2024 03:45";130
"01.04.2024 04:00";130
"01.04.2024 04:15";130
"01.04.2024 04:30";130
"01.04.2024 04:45";130
"01.04.2024 05:00";130
"01.04.2024 05:15";130
"01.04.2024 05:30";130
"01.04.2024 05:45";130
"01.04.2024 06:00";130
"01.04.2024 06:15";130
"01.04.2024 06:30";130
"01.04.2024 06:45";130
"01.04.2024 07:00";130
"01.04.2024 07:15";130
"01.04.2024 07:30";130
"01.04.2024 07:45";130
"01.04.2024 08:00";130
"01.04.2024 08:15";130
"01.04.2024 08:30";130
"01.04.2024 08:45";130
"01.04.2024 09:00";130
"01.04.2024 09:15";130
"01.04.2024 09:30";130
"01.04.2024 09:45";130
"01.04.2024 10:00";130
"01.04.2024 10:15";130
"01.04.2024 10:30";130
"01.04.2024 10:45";130
"01.04.2024 11:00";130
"01.04.2024 11:15";130
"01.04.2024 11:30";130
"01.04.2024 11:45";130
"01.04.2024 12:00";130
"01.04.2024 12:15";130
"01.04.2024 12:30";130
"01.04.2024 12:45";130
"01.04.2024 13:00";130
"01.04.2024 13:15";130
"01.04.2024 13:30";130
"01.04.2024 13:45";130
"01.04.2024 14:00";130
"01.04.2024 14:15";130
"01.04.2024 14:30";130
"01.04.2024 14:45";130
"01.04.2024 15:00";130
"01.04.2024 15:15";130
"01.04.2024 15:30";130
"01.04.2024 15:45";131
"01.04.2024 16:00";131
"01.04.2024 16:15";131
"01.04.2024 16:30";131
"01.04.2024 16:45";131
"01.04.2024 17:00";131
"01.04.2024 17:15";131
"01.04.2024 17:30";131
"01.04.2024 17:45";131
"01.04.2024 18:00";131
"01.04.2024 18:15";131
"01.04.2024 18:30";131
"01.04.2024 18:45";131
"01.04.2024 19:00";131
"01.04.2024 19:15";131
"01.04.2024 19:30";131
"01.04.2024 19:45";131
"01.04.2024 20:00";131
"01.04.2024 20:15";131
"01.04.2024 20:30";132
"01.04.2024 20:45";132
"01.04.2024 21:00";132
"01.04.2024 21:15";132
"01.04.2024 21:30";132
"01.04.2024 21:45";132
"01.04.2024 22:00";132
"01.04.2024 22:15";132
"01.04.2024 22:30";132
"01.04.2024 22:45";132
"01.04.2024 23:00";132
"01.04.2024 23:15";132
"01.04.2024 23:30";132
"01.04.2024 23:45";132
"02.04.2024 00:00";132
"02.04.2024 00:15";132
"02.04.2024 00:30";132
"02.04.2024 00:45";132
"02.04.2024 01:00";133
"02.04.2024 01:15";133
"02.04.2024 01:30";133
"02.04.2024 01:45";133
"02.04.2024 02:00";133
"02.04.2024 02:15";133
"02.04.2024 02:30";133
"02.04.2024 02:45";133
"02.04.2024 03:00";133
"02.04.2024 03:15";133
"02.04.2024 03:30";133
"02.04.2024 03:45";133
"02.04.2024 04:00";133
"02.04.2024 04:15";133
"02.04.2024 04:30";133
"02.04.2024 04:45";133
"02.04.2024 05:00";133
"02.04.2024 05:15";133
"02.04.2024 05:30";133
"02.04.2024 05:45";133
"02.04.2024 06:00";133
"02.04.2024 06:15";133
"02.04.2024 06:30";134
"02.04.2024 06:45";134
"02.04.2024 07:00";134
"02.04.2024 07:15";134
"02.04.2024 07:30";134
"02.04.2024 07:45";135
"02.04.2024 08:00";135
"02.04.2024 08:15";135
"02.04.2024 08:30";135
"02.04.2024 08:45";135
"02.04.2024 09:00";135
"02.04.2024 09:15";136
"02.04.2024 09:30";136
"02.04.2024 09:45";136
"02.04.2024 10:00";136
"02.04.2024 10:15";136
"02.04.2024 10:30";136
"02.04.2024 10:45";137
"02.04.2024 11:00";137
"02.04.2024 11:15";137
"02.04.2024 11:30";137
"02.04.2024 11:45";137
"02.04.2024 12:00";137
"02.04.2024 12:15";137
"02.04.2024 12:30";137
"02.04.2024 12:45";137
"02.04.2024 13:00";137
"02.04.2024 13:15";137
"02.04.2024 13:30";137
"02.04.2024 13:45";138
"02.04.2024 14:00";138
"02.04.2024 14:15";138
"02.04.2024 14:30";138
"02.04.2024 14:45";138
"02.04.2024 15:00";139
"02.04.2024 15:15";139
"02.04.2024 15:30";138
"02.04.2024 15:45";139
"02.04.2024 16:00";139
"02.04.2024 16:15";139
"02.04.2024 16:30";139
"02.04.2024 16:45";139
"02.04.2024 17:00";139
"02.04.2024 17:15";139
"02.04.2024 17:30";139
"02.04.2024 17:45";139
"02.04.2024 18:00";139
"02.04.2024 18:15";139
"02.04.2024 18:30";139
"02.04.2024 18:45";138
"02.04.2024 19:00";138
"02.04.2024 19:15";138
"02.04.2024 19:30";138
"02.04.2024 19:45";138
"02.04.2024 20:00";138
"02.04.2024 20:15";138
"02.04.2024 20:30";138
"02.04.2024 20:45";139
"02.04.2024 21:00";139
"02.04.2024 21:15";139
"02.04.2024 21:30";139
"02.04.2024 21:45";139
"02.04.2024 22:00";139
"02.04.2024 22:15";139
"02.04.2024 22:30";139
"02.04.2024 22:45";139
"02.04.2024 23:00";139
"02.04.2024 23:15";139
"02.04.2024 23:30";139
"02.04.2024 23:45";139
"03.04.2024 00:00";139
"03.04.2024 00:15";139
"03.04.2024 00:30";139
"03.04.2024 00:45";139
"03.04.2024 01:00";139
"03.04.2024 01:15";139
"03.04.2024 01:30";139
"03.04.2024 01:45";140
"03.04.2024 02:00";140
"03.04.2024 02:15";140
"03.04.2024 02:30";140
"03.04.2024 02:45";140
"03.04.2024 03:00";140
"03.04.2024 03:15";140
"03.04.2024 03:30";140
"03.04.2024 03:45";140
"03.04.2024 04:00";140
"03.04.2024 04:15";140
"03.04.2024 04:30";140
"03.04.2024 04:45";140
"03.04.2024 05:00";140
"03.04.2024 05:15";140
"03.04.2024 05:30";140
"03.04.2024 05:45";140
"03.04.2024 06:00";140
"03.04.2024 06:15";140
"03.04.2024 06:30";140
"03.04.2024 06:45";140
"03.04.2024 07:00";140
"03.04.2024 07:15";140
"03.04.2024 07:30";140
"03.04.2024 07:45";140
"03.04.2024 08:00";140
"03.04.2024 08:15";140
"03.04.2024 08:30";140
"03.04.2024 08:45";140
"03.04.2024 09:00";140
"03.04.2024 09:15";140
"03.04.2024 09:30";140
"03.04.2024 09:45";140
"03.04.2024 10:00";140
"03.04.2024 10:15";140
"03.04.2024 10:30";140
"03.04.2024 10:45";140
"03.04.2024 11:00";140
"03.04.2024 11:15";140
"03.04.2024 11:30";140
"03.04.2024 11:45";140
"03.04.2024 12:00";140
"03.04.2024 12:15";140
"03.04.2024 12:30";140
"03.04.2024 12:45";140
"03.04.2024 13:00";140
"03.04.2024 13:15";140
"03.04.2024 13:30";140
"03.04.2024 13:45";140
"03.04.2024 14:00";140
"03.04.2024 14:15";139
"03.04.2024 14:30";139
"03.04.2024 14:45";139
"03.04.2024 15:00";139
"03.04.2024 15:15";139
"03.04.2024 15:30";138
"03.04.2024 15:45";138
"03.04.2024 16:00";138
"03.04.2024 16:15";138
"03.04.2024 16:30";138
"03.04.2024 16:45";138
"03.04.2024 17:00";138
"03.04.2024 17:15";138
"03.04.2024 17:30";138
"03.04.2024 17:45";138
"03.04.2024 18:00";137
"03.04.2024 18:15";137
"03.04.2024 18:30";137
"03.04.2024 18:45";137
"03.04.2024 19:00";137
"03.04.2024 19:15";137